Location: Beutels
(47.8767°N, 9.8584°E)
Time: 07:30:14
(UTC+00:00)

Cosmos 1633 Rocket - Pass Details

Date: 19 May 2025
Orbit: 600 x 618 km, 82.5° (Epoch: 22 June)

Event Time Altitude Azimuth Distance (km) Brightness Sun altitude
Rises 22:53:33 0° 358° (N) 2,883 8.0 -21.9°
Reaches altitude 10° 22:56:00 10° 9° (N) 1,971 6.7 -22.0°
Maximum altitude 22:59:52 30° 72° (ENE) 1,085 4.4 -22.0°
Enters shadow 23:00:56 27° 99° (E) 1,173 4.3 -22.0°
